Regional Weather Roundup
Issued by NWS

Home | Current Version | Previous Version | Text Only | Print | Product List | Glossary Off
Versions: 1 2 3 4 5 6 7 8 9 10 11 12 13 14 15 16 17 18 19 20 21 22 23 24 25 26 27 28 29 30 31 32 33 34 35 36 37 38 39 40 41 42 43 44 45 46 47 48 49 50

000
ASUS43 KLMK 190810
RWRKY
KENTUCKY REGIONAL WEATHER ROUNDUP
NATIONAL WEATHER SERVICE LOUISVILLE KY
300 AM EST THU JAN 19 2017

NOTE "FAIR" INDICATES FEW OR NO CLOUDS BELOW 12,000 FEET
WITH NO SIGNIFICANT WEATHER AND/OR OBSTRUCTIONS TO VISIBILITY.

KYZ001>023-026-027-061>063-070>075-190900-
WESTERN AND SOUTH CENTRAL KENTUCKY

CITY           SKY/WX    TMP DP  RH WIND       PRES   REMARKS
PADUCAH        CLOUDY    46  41  82 NE3       30.03R
HENDERSON      MOCLDY    41  36  81 CALM      30.08R
OWENSBORO      CLOUDY    42  37  82 E3        30.07F
HOPKINSVILLE   CLOUDY    45  43  90 NE6       30.03F
BOWLING GREEN  CLOUDY    44  40  85 E5        30.08F
GLASGOW        CLOUDY    41  41 100 CALM      30.09R
$$

KYZ024-025-028>034-038-045-046-053-190900-
NORTH CENTRAL KENTUCKY

CITY           SKY/WX    TMP DP  RH WIND       PRES   REMARKS
LOUISVILLE/SDF CLOUDY    41  35  79 CALM      30.10S
LOUISVILLE/LOU MOCLDY    41  36  82 CALM      30.10F
FORT KNOX      MOCLDY    38  36  93 E3        30.07S
$$

KYZ035>037-039>044-047>052-055>060-089>105-190900-
NORTHEAST KENTUCKY

CITY           SKY/WX    TMP DP  RH WIND       PRES   REMARKS
LEXINGTON      MOCLDY    37  34  89 E6        30.10F WCI  32
COVINGTON      CLOUDY    39  37  92 S3        30.12R
FRANKFORT      MOCLDY    36  33  89 CALM      30.10S
$$

KYZ054-064>069-076>088-106>120-190900-
SOUTHEAST KENTUCKY

CITY           SKY/WX    TMP DP  RH WIND       PRES   REMARKS
JACKSON        PTCLDY    39  36  89 CALM      30.11R
LONDON         PTCLDY    39  35  86 CALM      30.11R
SOMERSET       MOCLDY    37  37 100 CALM      30.11S
MIDDLESBORO    CLOUDY    39  39 100 CALM      30.13S
MONTICELLO     CLOUDY    41  39  93 NE8       30.12R
$$




USA.gov is the U.S. government's official web portal to all federal, state and local government web resources and services.